Location: Ermatingen
(47.6706°N, 9.0857°E)
Time: 08:51:46
(UTC+00:00)

OBJECT-B - Pass Details

Date: 18 September 2020
Orbit: 421 x 433 km, 97.0° (Epoch: 09 October)

Event Time Altitude Azimuth Distance (km) Brightness Sun altitude
Exits shadow 19:01:25 36° 82° (E) 691 1.4 -16.0°
Maximum altitude 19:01:37 36° 72° (ENE) 685 1.4 -16.1°
Drops below altitude 10° 19:04:39 10° 4° (N) 1,522 3.8 -16.5°
Sets 19:06:45 0° 356° (N) 2,395 5.0 -16.9°
